INTELSAT 33E DEB, 61999

Orbit data source: Space-Track

INTELSAT 33E DEB, 61999 is space debris in GEO originally from a launch on Wed, 24 Aug 2016 UTC launched from the French Guiana (FRGUI). Debris objects in space refer to the collection of defunct objects orbiting the Earth. Examples of debris include non-operational satellites, rocket bodies, and fragments generated from explosions, collisions, or faulty payload assembly.

Not visible in the next 10 days
Identifier
61999, 2016-053R
Orbit
GEO
Country
Flag of UnknownUnknown / ITSO
Related business
Manufacturer
Boeing/ES
Mission
Spacecraft
Bus & Motor
Unknown
Mass
Unknown
Launch date (UTC)
2016-08-24 (9 years ago)
Launch vehicle
Unknown
Launch site
French Guiana (FRGUI)
Object type
Payload
Rocket body
Debris
Shape & HBR
Unknown shape, 1.1 m
Radar Cross Section
RCS unknown

Expand to show TLE details & history
Last TLE update: 3 days ago

TLE from 3 days ago
0 INTELSAT 33E DEB
1 61999U 16053R   25311.60563906 -.00000175  00000-0  00000-0 0  9990
2 61999   0.9365  75.4016 0113843  35.2217 250.6299  0.99255248  3822
Epoch: 2025-11-07T14:32Z
TLE epoch observation values (Epoch: 2025-11-07T14:32:07.214Z)
Latitude
-0.88353°
Longitude
94.92457°
Altitude
36,236.802 km
Speed
3.053 km/s
True Right ascension
00h 00m 00s
True Declination
0° 52' 58"
Sunlit
Object was in daylight at epoch
Visualization orbit readout
Latitude
Unknown
Longitude
Unknown
Altitude
Unknown
Speed
Unknown
Apparent Right ascension
Unknown
Apparent Declination
Unknown
Sunlit
N/A
Visualization observer readout
Local Sidereal Time
03:15:18
Azimuth
Unknown
Elevation
Unknown
Doppler factor
Unknown
Orbital elements
Apogee altitude
36,558.36 km
Perigee altitude
35,591.76 km
Semi-major axis
42,453.197 km
Eccentricity
0.01138
Inclination
0.9365°
RAAN
75.4016°
Arg. of periapsis
35.2217°
True anomaly
249.40507°
Mean anomaly
250.6299°
Eccentric anomaly
250.0169°
Mean motion
0.24813 °/min
Orbital period
1,450.86 mins
BSTAR
0
Loading maneuver chart data...
Computing Atmospheric mass density...
Loading historical data...
Loading historical data...
Loading historical data...
Loading historical data...
Loading historical data...
Loading historical data...
Loading historical data...

Documentation

Showing up to 5 results
|